Simultaneous Nadir Overpasses (SNOs) Predictions

Prediction of SNOs between NOAA-19 and TERRA Satellite Orbit:

Table of predicted SNOs for the next 14.0 days since TLE Epoch: 11/9/2013
Index Date (NOAA-19) Time (NOAA-19) Lat,Lon (NOAA-19) SZA (NOAA-19 ) Date (TERRA) Time (TERRA) Lat,Lon (TERRA) SZA (TERRA ) Distance(km) Time Diff (sec)
1 11/10/2013 15:36:15 -69.89, 126.40 92.87 11/10/2013 15:36:26 -69.88, 126.44 92.87 1.49 11
2 11/10/2013 16:27:08 69.57, -65.87 86.85 11/10/2013 16:25:56 69.61, -66.28 86.87 16.74 72
3 11/12/2013 20:20:26 -69.90, 55.35 92.25 11/12/2013 20:20:44 -69.87, 55.36 92.28 3.34 18
4 11/12/2013 21:11:22 69.77,-137.19 87.63 11/12/2013 21:10:11 69.77,-137.15 87.62 1.56 71
5 11/15/2013 01:04:36 -69.88, -15.64 91.70 11/15/2013 01:05:01 -69.90, -15.68 91.68 2.77 25
6 11/15/2013 01:55:32 69.76, 151.80 88.20 11/15/2013 01:54:28 69.79, 151.81 88.22 3.52 64
7 11/17/2013 05:48:47 -69.92, -86.72 91.12 11/17/2013 05:49:18 -69.91, -86.74 91.13 1.31 31
8 11/17/2013 06:39:43 69.81, 80.70 88.79 11/17/2013 06:38:45 69.80, 80.75 88.77 2.38 58
9 11/19/2013 10:32:58 -69.96,-157.82 90.56 11/19/2013 10:33:34 -69.95,-157.75 90.57 2.84 36
10 11/19/2013 11:23:53 69.81, 9.67 89.31 11/19/2013 11:23:02 69.78, 9.66 89.27 3.48 51
11 11/21/2013 15:17:08 -69.97, 131.16 90.07 11/21/2013 15:17:50 -69.97, 131.22 90.06 2.44 42
12 11/21/2013 16:08:03 69.82, -61.36 89.81 11/21/2013 16:07:18 69.80, -61.38 89.78 2.04 45
